Miscellaneous Local Product
Issued by NWS North Platte, NE

Home | Current Version | Previous Version | Text Only | Print | Product List | Glossary On
Versions: 1 2 3 4 5 6 7 8 9 10 11 12 13 14 15 16 17 18 19 20 21 22 23 24 25 26 27 28 29 30 31 32 33 34 35 36 37 38 39 40 41 42 43 44 45 46 47 48 49 50
000
AXUS43 KLBF 300410
MISLBF


WESTERN AND NORTH CENTRAL NEBRASKA HOURLY WEATHER ROUNDUP
NATIONAL WEATHER SERVICE NORTH PLATTE NE
1100 PM CDT THU SEP 29 2016

NOTE: "FAIR" INDICATES FEW OR NO CLOUDS BELOW 12,000 FEET WITH NO
SIGNIFICANT WEATHER AND/OR OBSTRUCTIONS TO VISIBILITY.

NOTE: STATIONS NOT REPORTING VARIABLES SUCH AS SKY/WEATHER OR
PRESSURE ARE PROVIDED BY RAWS AND APRS NETWORKS AND ARE NOT UNDER
NATIONAL WEATHER SERVICE QUALITY CONTROL.

...OBSERVATIONS IN AND NEAR THE EASTERN PANHANDLE OF NEBRASKA...

CITY           SKY/WX    TMP DP  RH WIND       PRES   REMARKS
PINE RIDGE     CLEAR     65  41  41 S18G33    30.21S
CHADRON        CLEAR     66  40  38 S16G32    30.18S
ALLIANCE       CLEAR     57  41  55 SE13      30.25S
SIDNEY         CLEAR     59  42  53 SE14      30.28S
$$

...OBSERVATIONS IN NORTHERN NEBRASKA AND FAR SOUTHERN SOUTH DAKOTA...

CITY           SKY/WX    TMP DP  RH WIND       PRES   REMARKS
WINNER         FAIR      52  45  77 SE10      30.30R
VALENTINE      CLEAR     55  40  56 S12       30.29S
THEDFORD       CLEAR     51  41  68 SE7       30.32S
AINSWORTH      CLEAR     54  44  70 SE9       30.31S
O`NEILL        CLEAR     53  44  72 SE3       30.35R
ORD            CLEAR     44  40  85 CALM      30.33S
BROKEN BOW     CLEAR     45  41  86 CALM      30.33S
VALENTINE NWR    N/A     52  40  63 S6          N/A
BUTTE            N/A     51  47  85 E7          N/A
HALSEY           N/A     53  41  63 SE6         N/A
EWING            N/A     50  46  85 CALM        N/A
$$

...OBSERVATIONS IN SOUTHWEST NEBRASKA AND FAR NORTHEAST COLORADO...

CITY           SKY/WX    TMP DP  RH WIND       PRES   REMARKS
WRAY           FAIR      55  39  54 SE10      30.29S
HOLYOKE        FAIR      55  41  58 SE8       30.29S
IMPERIAL       CLEAR     55  41  59 SE14      30.30R
OGALLALA       CLEAR     58  41  54 SE7       30.29F
NORTH PLATTE   CLEAR     48  40  73 E7        30.31S
MCCOOK         CLEAR     52  43  71 SE8       30.31S
LEXINGTON      CLEAR     51  44  75 SE6       30.33S
STAPLETON        N/A     51  40  67 CALM        N/A
GOTHENBURG       N/A     51  39  64 CALM        N/A
CALLAWAY         N/A     47  42  84 SE3         N/A
$$

...OBSERVATIONS IN CENTRAL LINCOLN COUNTY AREA...

CITY           SKY/WX    TMP DP  RH WIND       PRES   REMARKS
N.P. AIRPORT   CLEAR     48  40  73 E7        30.31S
N.P. DOWNTOWN    N/A     56  42  60 CALM        N/A
N.P. SOUTHEAST   N/A     54  42  62 SE3         N/A
N.P. HILLCREST   N/A     54  41  62 SE7         N/A
$$

...SOME OBSERVATIONS FROM AROUND THE REGION...

CITY           SKY/WX    TMP DP  RH WIND       PRES   REMARKS
DENVER         PTCLDY    64  33  31 S12       30.24S
LARAMIE        CLOUDY    53  44  71 NE8       30.37F
CHEYENNE       CLOUDY    61  39  44 CALM      30.31S
SCOTTSBLUFF    CLOUDY    61  42  49 SE17      30.24S
RAPID CITY     PTCLDY    60  44  55 SE10      30.19S
BISMARCK       CLEAR     55  45  68 SE12      30.25F
PIERRE         CLEAR     57  45  64 SE15      30.26S
SIOUX FALLS    CLEAR     50  45  83 E5        30.36S
OMAHA          CLEAR     53  46  77 NW6       30.34S
GRAND ISLAND   CLEAR     52  45  77 SE6       30.35R
KANSAS CITY    CLEAR     57  47  69 N7        30.30S
WICHITA        CLEAR     56  51  84 N3        30.32R
OKLAHOMA CITY  PTCLDY    61  49  64 N6        30.29S
DALLAS         CLEAR     63  51  65 N5        30.23S
AMARILLO       CLEAR     56  45  66 SE12      30.34S
DODGE CITY     PTCLDY    53  43  68 SE7       30.33S
HAYS           CLEAR     52  37  58 SE8       30.33S
GOODLAND       CLEAR     55  38  52 SE12      30.29S
$$




USA.gov is the U.S. government's official web portal to all federal, state and local government web resources and services.